Time,TemperatureF,DewpointF,PressureIn,WindDirection,WindDirectionDegrees,WindSpeedMPH,WindSpeedGustMPH,Humidity,HourlyPrecipIn,Conditions,Clouds,dailyrainin,SoftwareType,DateUTC
2013-03-19 00:43:00,50.0,-99.9,-100.00,North,-999,-999.0,-999.0,-999,0.00,,,0.00,,2013-03-19 07:43:00,
2013-03-19 00:53:00,50.0,-99.9,-100.00,North,-999,-999.0,-999.0,-999,0.00,,,0.00,,2013-03-19 07:53:00,
2013-03-19 01:43:00,48.0,-99.9,-100.00,North,-999,-999.0,-999.0,-999,0.00,,,0.00,,2013-03-19 08:43:00,
2013-03-19 01:53:00,48.0,-99.9,-100.00,North,-999,-999.0,-999.0,-999,0.00,,,0.00,,2013-03-19 08:53:00,
2013-03-19 02:43:00,46.0,-99.9,-100.00,North,-999,-999.0,-999.0,-999,0.00,,,0.00,,2013-03-19 09:43:00,
2013-03-19 02:53:00,46.0,-99.9,-100.00,North,-999,-999.0,-999.0,-999,0.00,,,0.00,,2013-03-19 09:53:00,
2013-03-19 03:43:00,43.0,-99.9,-100.00,North,-999,-999.0,-999.0,-999,0.00,,,0.00,,2013-03-19 10:43:00,
2013-03-19 03:54:00,43.0,-99.9,-100.00,North,-999,-999.0,-999.0,-999,0.00,,,0.00,,2013-03-19 10:54:00,
2013-03-19 04:00:00,46.0,-99.9,-100.00,North,-999,-999.0,-999.0,-999,0.00,,,0.00,,2013-03-19 11:00:00,
2013-03-19 04:43:00,46.0,-99.9,-100.00,North,-999,-999.0,-999.0,-999,0.00,,,0.00,,2013-03-19 11:43:00,
2013-03-19 04:53:00,46.0,-99.9,-100.00,North,-999,-999.0,-999.0,-999,0.00,,,0.00,,2013-03-19 11:53:00,
2013-03-19 06:00:00,45.0,-99.9,-100.00,North,-999,-999.0,-999.0,-999,0.00,,,0.00,,2013-03-19 13:00:00,
2013-03-19 06:42:00,45.0,-99.9,-100.00,North,-999,-999.0,-999.0,-999,0.00,,,0.00,,2013-03-19 13:42:00,
2013-03-19 06:53:00,45.0,-99.9,-100.00,North,-999,-999.0,-999.0,-999,0.00,,,0.00,,2013-03-19 13:53:00,
2013-03-19 07:00:00,44.0,-99.9,-100.00,North,-999,-999.0,-999.0,-999,0.00,,,0.00,,2013-03-19 14:00:00,
2013-03-19 07:42:00,44.0,-99.9,-100.00,North,-999,-999.0,-999.0,-999,0.00,,,0.00,,2013-03-19 14:42:00,
2013-03-19 07:53:00,44.0,-99.9,-100.00,North,-999,-999.0,-999.0,-999,0.00,,,0.00,,2013-03-19 14:53:00,
2013-03-19 08:00:00,46.0,-99.9,-100.00,North,-999,-999.0,-999.0,-999,0.00,,,0.00,,2013-03-19 15:00:00,
2013-03-19 08:44:00,46.0,-99.9,-100.00,North,-999,-999.0,-999.0,-999,0.00,,,0.00,,2013-03-19 15:44:00,
2013-03-19 08:54:00,46.0,-99.9,-100.00,North,-999,-999.0,-999.0,-999,0.00,,,0.00,,2013-03-19 15:54:00,
2013-03-19 09:44:00,49.0,-99.9,-100.00,North,-999,-999.0,-999.0,-999,0.00,,,0.00,,2013-03-19 16:44:00,
2013-03-19 10:00:00,55.0,-99.9,-100.00,North,-999,-999.0,-999.0,-999,0.00,,,0.00,,2013-03-19 17:00:00,
2013-03-19 10:44:00,55.0,-99.9,-100.00,North,-999,-999.0,-999.0,-999,0.00,,,0.00,,2013-03-19 17:44:00,
2013-03-19 10:53:00,55.0,-99.9,-100.00,North,-999,-999.0,-999.0,-999,0.00,,,0.00,,2013-03-19 17:53:00,
2013-03-19 11:44:00,57.0,-99.9,-100.00,North,-999,-999.0,-999.0,-999,0.00,,,0.00,,2013-03-19 18:44:00,
2013-03-19 12:43:00,59.0,-99.9,-100.00,North,-999,-999.0,-999.0,-999,0.00,,,0.00,,2013-03-19 19:43:00,
2013-03-19 12:53:00,59.0,-99.9,-100.00,North,-999,-999.0,-999.0,-999,0.00,,,0.00,,2013-03-19 19:53:00,
2013-03-19 13:43:00,63.0,-99.9,-100.00,North,-999,-999.0,-999.0,-999,0.00,,,0.00,,2013-03-19 20:43:00,
2013-03-19 13:53:00,63.0,-99.9,-100.00,North,-999,-999.0,-999.0,-999,0.00,,,0.00,,2013-03-19 20:53:00,
2013-03-19 14:44:00,61.0,-99.9,-100.00,North,-999,-999.0,-999.0,-999,0.00,,,0.00,,2013-03-19 21:44:00,
2013-03-19 14:54:00,61.0,-99.9,-100.00,North,-999,-999.0,-999.0,-999,0.00,,,0.00,,2013-03-19 21:54:00,
2013-03-19 15:44:00,54.0,-99.9,-100.00,North,-999,-999.0,-999.0,-999,0.00,,,0.00,,2013-03-19 22:44:00,
2013-03-19 15:54:00,54.0,-99.9,-100.00,North,-999,-999.0,-999.0,-999,0.00,,,0.00,,2013-03-19 22:54:00,
2013-03-19 16:43:00,54.0,-99.9,-100.00,North,-999,-999.0,-999.0,-999,0.04,,,0.04,,2013-03-19 23:43:00,
2013-03-19 16:53:00,54.0,-99.9,-100.00,North,-999,-999.0,-999.0,-999,0.04,,,0.04,,2013-03-19 23:53:00,
2013-03-19 17:43:00,50.0,-99.9,-100.00,North,-999,-999.0,-999.0,-999,0.00,,,0.04,,2013-03-20 00:43:00,
2013-03-19 17:53:00,50.0,-99.9,-100.00,North,-999,-999.0,-999.0,-999,0.00,,,0.04,,2013-03-20 00:53:00,
2013-03-19 18:43:00,50.0,-99.9,-100.00,North,-999,-999.0,-999.0,-999,0.00,,,0.08,,2013-03-20 01:43:00,
2013-03-19 19:43:00,49.0,-99.9,-100.00,North,-999,-999.0,-999.0,-999,0.00,,,0.12,,2013-03-20 02:43:00,
2013-03-19 19:53:00,49.0,-99.9,-100.00,North,-999,-999.0,-999.0,-999,0.00,,,0.12,,2013-03-20 02:53:00,
2013-03-19 20:54:00,49.0,-99.9,-100.00,North,-999,-999.0,-999.0,-999,0.00,,,0.12,,2013-03-20 03:54:00,
2013-03-19 21:00:00,49.0,-99.9,-100.00,North,-999,-999.0,-999.0,-999,0.04,,,0.16,,2013-03-20 04:00:00,
2013-03-19 21:44:00,49.0,-99.9,-100.00,North,-999,-999.0,-999.0,-999,0.04,,,0.16,,2013-03-20 04:44:00,
2013-03-19 21:53:00,49.0,-99.9,-100.00,North,-999,-999.0,-999.0,-999,0.04,,,0.16,,2013-03-20 04:53:00,
2013-03-19 22:00:00,48.0,-99.9,-100.00,North,-999,-999.0,-999.0,-999,0.08,,,0.24,,2013-03-20 05:00:00,
2013-03-19 22:43:00,48.0,-99.9,-100.00,North,-999,-999.0,-999.0,-999,0.08,,,0.24,,2013-03-20 05:43:00,
2013-03-19 22:53:00,48.0,-99.9,-100.00,North,-999,-999.0,-999.0,-999,0.08,,,0.24,,2013-03-20 05:53:00,
2013-03-19 23:00:00,51.0,-99.9,-100.00,North,-999,-999.0,-999.0,-999,0.08,,,0.32,,2013-03-20 06:00:00,
2013-03-19 23:43:00,51.0,-99.9,-100.00,North,-999,-999.0,-999.0,-999,0.08,,,0.32,,2013-03-20 06:43:00,
2013-03-19 23:53:00,51.0,-99.9,-100.00,North,-999,-999.0,-999.0,-999,0.08,,,0.32,,2013-03-20 06:53:00,